Location: Molveno
(46.1500°N, 10.9667°E)
Time: 08:00:58
(UTC+00:00)

SL-16 R/B - Pass Details

Date: 05 July 2020
Orbit: 839 x 850 km, 71.0° (Epoch: 05 August)

Event Time Altitude Azimuth Distance (km) Brightness Sun altitude
Exits shadow 23:00:52 39° 204° (SSW) 1,249 2.6 -21.0°
Maximum altitude 23:03:07 89° 113° (ESE) 852 2.1 -21.1°
Drops below altitude 10° 23:08:49 10° 27° (NNE) 2,481 5.5 -21.1°
Sets 23:11:17 0° 27° (NNE) 3,422 6.4 -21.2°
